Tracking 34142 objects as of 17-May-2026
HD Live streaming from Space Station
objects crossing your sky now

STARLINK-31811

Track STARLINK-31811 now!
10-day predictions
STARLINK-31811 is classified as:


NORAD ID: 60051
Int'l Code: 2024-112P
Perigee: 481.6 km
Apogee: 483.2 km
Inclination: 53.2 °
Period: 94.1 minutes
Semi major axis: 6853 km
RCS: Unknown
Launch date: June 8, 2024
Source: United States (US)
Launch site: AIR FORCE WESTERN TEST RANGE (AFWTR)
Your satellite tracking list
Your tracking list is empty




NASA's NSSDC Master Catalog

Two Line Element Set (TLE):
1 60051U 24112P   26137.33609951 -.00000464  00000-0 -35357-5 0  9991
2 60051  53.1606 119.3503 0001141  89.6189 270.4943 15.30181919109103
Source of the keplerian elements: AFSPC